Location: Mahannah Oil Field
(37.4664°N, 96.6003°W)
Time: 08:37:24
(UTC+00:00)

Courier 1B - Pass Details

Date: 25 January 2021
Orbit: 962 x 1209 km, 28.3° (Epoch: 02 March)

Event Time Altitude Azimuth Distance (km) Brightness Sun altitude
Rises 07:02:06 0° 252° (WSW) 3,714 - -70.7°
Reaches altitude 10° 07:05:00 10° 244° (WSW) 2,736 - -70.6°
Maximum altitude 07:10:58 37° 179° (S) 1,447 - -70.1°
Drops below altitude 10° 07:16:50 10° 113° (ESE) 2,685 - -69.6°
Sets 07:19:39 0° 106° (ESE) 3,637 - -69.4°
